Ketchikan, AK

9:03 PM AKDT on August 21, 2018 (GMT -0800)
Ketchikan International

Weather History for PAKT - February, 2018

Change the Weather History Date:

Wednesday, February 28, 2018

  Actual Average Record
Temperature  
Mean Temperature 36 °F -  
Max Temperature 43 °F 42 °F 56 °F (1968)
Min Temperature 30 °F 30 °F 7 °F (2011)
Degree Days  
Heating Degree Days 28    
Moisture  
Dew Point 27 °F    
Average Humidity 71    
Maximum Humidity 96    
Minimum Humidity 40    
Precipitation  
Precipitation 0.00 in - - ()
Sea Level Pressure  
Sea Level Pressure 29.46 in    
Wind  
Wind Speed 4 mph (East)    
Max Wind Speed 13 mph    
Max Gust Speed 18 mph    
Visibility 9 miles    
Events Snow    
Averages and records for this station are not official NWS values.
T = Trace of Precipitation, MM = Missing Value Source: NWS Daily Summary

Daily Weather History Graph

Daily Weather History Graph

Search for Another Location

Airport or City:

Astronomy

Feb. 28, 2018 Rise Set
Actual Time 6:39 AM AKST 5:20 PM AKST
Civil Twilight 6:02 AM AKST 5:57 PM AKST
Nautical Twilight 5:20 AM AKST 6:39 PM AKST
Astronomical Twilight 4:37 AM AKST 7:22 PM AKST
Moon 3:49 PM AKST (2/28) 6:17 AM AKST (2/28)
Length of Visible Light 11h 54m
Length of Day
10h 41m
Waxing Gibbous, 98% of the Moon is Illuminated
Feb 28
Waxing Gibbous
Mar 1
Full
Mar 9
Last Quarter
Mar 17
New
Mar 24
First Quarter

Hourly Weather History & Observations

Time (AKST) Temp. Windchill Dew Point Humidity Pressure Visibility Wind Dir Wind Speed Gust Speed Precip Events Conditions
12:53 AM 33.1 °F 28.7 °F 30.0 °F 89% 29.69 in 10.0 mi SSE 4.6 mph - N/A   Clear
1:53 AM 32.0 °F 27.5 °F 30.0 °F 92% 29.67 in 10.0 mi SE 4.6 mph - N/A   Clear
2:53 AM 33.1 °F 30.0 °F 28.9 °F 85% 29.64 in 10.0 mi South 3.5 mph - N/A   Clear
3:22 AM 32.0 °F 27.5 °F 30.0 °F 92% 29.62 in 10.0 mi SSE 4.6 mph - N/A   Mostly Cloudy
3:49 AM 33.8 °F 29.6 °F 30.2 °F 87% 29.61 in 5.0 mi SSE 4.6 mph - 0.00 in Snow Light Snow
3:53 AM 33.1 °F - 30.9 °F 92% 29.62 in 6.0 mi Calm Calm - 0.00 in Snow Light Snow
4:25 AM 34.0 °F - 32.0 °F 92% 29.60 in 6.0 mi Calm Calm - 0.00 in   Overcast
4:53 AM 34.0 °F 31.0 °F 32.0 °F 92% 29.60 in 10.0 mi Variable 3.5 mph - 0.00 in   Overcast
5:05 AM 33.1 °F - 32.0 °F 96% 29.59 in 10.0 mi Calm Calm - N/A   Overcast
5:39 AM 32.0 °F 28.7 °F 30.9 °F 96% 29.57 in 10.0 mi WSW 3.5 mph - N/A   Scattered Clouds
5:53 AM 32.0 °F - 30.0 °F 92% 29.56 in 10.0 mi Calm Calm - N/A   Partly Cloudy
6:53 AM 30.0 °F 26.5 °F 28.0 °F 92% 29.53 in 10.0 mi West 3.5 mph - N/A   Scattered Clouds
7:53 AM 32.0 °F - 30.0 °F 92% 29.51 in 10.0 mi Calm Calm - N/A   Mostly Cloudy
8:53 AM 35.1 °F - 28.9 °F 78% 29.48 in 10.0 mi Calm Calm - N/A   Mostly Cloudy
9:53 AM 37.0 °F 34.5 °F 30.9 °F 79% 29.44 in 10.0 mi NNW 3.5 mph - N/A   Mostly Cloudy
10:53 AM 39.9 °F 33.4 °F 23.0 °F 51% 29.41 in 10.0 mi ENE 10.4 mph - N/A   Overcast
11:53 AM 41.0 °F 39.0 °F 23.0 °F 49% 29.38 in 10.0 mi Variable 3.5 mph - N/A   Overcast
12:53 PM 41.0 °F 35.8 °F 23.0 °F 49% 29.34 in 10.0 mi NNE 8.1 mph 18.4 mph N/A   Overcast
1:53 PM 41.0 °F 39.0 °F 24.8 °F 53% 29.33 in 10.0 mi ENE 3.5 mph - N/A   Overcast
2:53 PM 39.2 °F - 28.4 °F 65% 29.33 in 4.0 mi Calm Calm - N/A   Haze
3:08 PM 37.9 °F 35.5 °F 28.9 °F 70% 29.31 in 9.0 mi Variable 3.5 mph - N/A   Overcast
3:15 PM 37.9 °F 34.4 °F 28.9 °F 70% 29.31 in 4.0 mi South 4.6 mph - 0.00 in Snow Light Snow
3:53 PM 37.4 °F 32.8 °F 30.2 °F 75% 29.32 in 8.0 mi Variable 5.8 mph - N/A   Overcast
4:53 PM 39.2 °F 37.0 °F 28.4 °F 65% 29.31 in 10.0 mi East 3.5 mph - N/A   Overcast
5:53 PM 41.0 °F 37.1 °F 26.6 °F 57% 29.31 in 10.0 mi NNE 5.8 mph - N/A   Overcast
6:53 PM 41.0 °F 36.4 °F 21.2 °F 45% 29.33 in 10.0 mi SW 6.9 mph - N/A   Clear
7:53 PM 42.8 °F 36.2 °F 21.2 °F 42% 29.34 in 10.0 mi North 12.7 mph - N/A   Clear
8:53 PM 42.8 °F - 21.2 °F 42% 29.37 in 10.0 mi Calm Calm - N/A   Partly Cloudy
9:53 PM 43.0 °F 38.2 °F 21.0 °F 42% 29.39 in 10.0 mi North 8.1 mph - N/A   Scattered Clouds
10:53 PM 43.0 °F 41.3 °F 19.9 °F 40% 29.42 in 10.0 mi Variable 3.5 mph - N/A   Mostly Cloudy
11:53 PM 43.0 °F 38.8 °F 21.9 °F 43% 29.44 in 10.0 mi ENE 6.9 mph - N/A   Partly Cloudy